| time (UTC) | temp F | wind direction | speed MPH | gust MPH | rain 1hr in | rain 24hr in | rain mn in | humidity % | barometer mb |
| 20260503223519 | 71 | 0.0 | 0.0 | 0.00 | 0.00 | 0.00 | 45 | 1016.1 | |
| 20260503222521 | 72 | 0.0 | 0.0 | 0.00 | 0.00 | 0.00 | 44 | 1016.0 | |
| 20260503221526 | 72 | 0.0 | 0.0 | 0.00 | 0.00 | 0.00 | 43 | 1015.9 | |
| 20260503220527 | 72 | 0.0 | 0.0 | 0.00 | 0.00 | 0.00 | 42 | 1016.0 | |
| 20260503215530 | 72 | 0.0 | 0.0 | 0.00 | 0.00 | 0.00 | 44 | 1015.9 | |
| 20260503214515 | 72 | 0.0 | 0.0 | 0.00 | 0.00 | 0.00 | 41 | 1016.0 | |
| 20260503213518 | 73 | 0.0 | 0.0 | 0.00 | 0.00 | 0.00 | 41 | 1016.0 | |
| 20260503212521 | 74 | 0.0 | 0.0 | 0.00 | 0.00 | 0.00 | 40 | 1016.1 | |
| 20260503211523 | 74 | 0.0 | 0.0 | 0.00 | 0.00 | 0.00 | 40 | 1016.2 | |
| 20260503210547 | 75 | 0.0 | 0.0 | 0.00 | 0.00 | 0.00 | 39 | 1016.0 | |
| 20260503205523 | 75 | 0.0 | 0.0 | 0.00 | 0.00 | 0.00 | 39 | 1016.1 | |
| 20260503204521 | 74 | 0.0 | 0.0 | 0.00 | 0.00 | 0.00 | 40 | 1016.3 | |
| 20260503203517 | 74 | 0.0 | 0.0 | 0.00 | 0.00 | 0.00 | 39 | 1016.4 | |
| 20260503202520 | 75 | 0.0 | 0.0 | 0.00 | 0.00 | 0.00 | 37 | 1016.5 | |
| 20260503201523 | 75 | 0.0 | 0.0 | 0.00 | 0.00 | 0.00 | 39 | 1016.6 | |
| 20260503200525 | 75 | 0.0 | 0.0 | 0.00 | 0.00 | 0.00 | 38 | 1016.6 | |
| 20260503195529 | 75 | 0.0 | 0.0 | 0.00 | 0.00 | 0.00 | 39 | 1017.1 | |
| 20260503194531 | 76 | 0.0 | 0.0 | 0.00 | 0.00 | 0.00 | 42 | 1017.1 | |
| 20260503193537 | 74 | 0.0 | 0.0 | 0.00 | 0.00 | 0.00 | 44 | 1017.4 | |
| 20260503192540 | 74 | 0.0 | 0.0 | 0.00 | 0.00 | 0.00 | 42 | 1017.6 | |
| 20260503191522 | 74 | 0.0 | 0.0 | 0.00 | 0.01 | 0.00 | 41 | 1017.8 | |
| 20260503190525 | 74 | 0.0 | 0.0 | 0.00 | 0.01 | 0.00 | 41 | 1017.9 | |
| 20260503185528 | 74 | 0.0 | 0.0 | 0.00 | 0.01 | 0.00 | 42 | 1018.1 | |
| 20260503184531 | 74 | 0.0 | 0.0 | 0.00 | 0.01 | 0.00 | 42 | 1018.3 | |
| 20260503183516 | 74 | 0.0 | 0.0 | 0.00 | 0.02 | 0.00 | 40 | 1018.4 | |
| 20260503182519 | 73 | 0.0 | 0.0 | 0.00 | 0.02 | 0.00 | 39 | 1018.6 | |
| 20260503181542 | 73 | 0.0 | 0.0 | 0.00 | 0.02 | 0.00 | 40 | 1018.7 | |
| 20260503180544 | 74 | 0.0 | 0.0 | 0.00 | 0.02 | 0.00 | 44 | 1018.7 | |
| 20260503175527 | 72 | 0.0 | 0.0 | 0.00 | 0.02 | 0.00 | 45 | 1018.7 | |
| 20260503174524 | 73 | 0.0 | 0.0 | 0.00 | 0.03 | 0.00 | 45 | 1018.7 | |
| 20260503173515 | 71 | 0.0 | 0.0 | 0.00 | 0.03 | 0.00 | 47 | 1018.8 | |
| 20260503172518 | 71 | 0.0 | 0.0 | 0.00 | 0.03 | 0.00 | 49 | 1018.8 | |
| 20260503171516 | 70 | 0.0 | 0.0 | 0.00 | 0.03 | 0.00 | 49 | 1018.8 | |
| 20260503170544 | 69 | 0.0 | 0.0 | 0.00 | 0.03 | 0.00 | 49 | 1018.9 | |
| 20260503150522 | 60 | 0.0 | 0.0 | 0.00 | 0.07 | 0.00 | 90 | 1019.9 | |
| 20260503130520 | 51 | 0.0 | 0.0 | 0.00 | 0.20 | 0.00 | 99 | 1019.2 | |
| 20260503110518 | 48 | 0.0 | 0.0 | 0.00 | 0.33 | 0.00 | 99 | 1018.2 | |
| 20260503081526 | 49 | 0.0 | 0.0 | 0.00 | 0.50 | 0.00 | 99 | 1016.6 | |
| 20260503080516 | 49 | 0.0 | 0.0 | 0.00 | 0.52 | 0.00 | 99 | 1016.6 | |
| 20260503072528 | 49 | 0.0 | 0.0 | 0.00 | 0.58 | 0.00 | 99 | 1016.5 | |
| 20260503071532 | 49 | 0.0 | 0.0 | 0.00 | 0.60 | 0.00 | 99 | 1016.3 | |
| 20260503070517 | 49 | 0.0 | 0.0 | 0.00 | 0.61 | 0.00 | 99 | 1016.3 | |
| 20260503054522 | 50 | 0.0 | 0.0 | 0.00 | 0.68 | 0.00 | 99 | 1016.0 | |
| 20260503053525 | 51 | 0.0 | 0.0 | 0.00 | 0.69 | 0.00 | 99 | 1015.8 | |
| 20260503052527 | 51 | 0.0 | 0.0 | 0.00 | 0.69 | 0.00 | 99 | 1015.9 | |
| 20260503051532 | 51 | 0.0 | 0.0 | 0.00 | 0.69 | 0.00 | 99 | 1016.0 | |
| 20260503050515 | 51 | 0.0 | 0.0 | 0.00 | 0.69 | 0.00 | 99 | 1015.9 | |
| 20260503045518 | 52 | 0.0 | 0.0 | 0.00 | 0.69 | 0.00 | 99 | 1015.8 | |
| 20260503044543 | 52 | 0.0 | 0.0 | 0.00 | 0.69 | 0.00 | 99 | 1015.7 | |
| 20260503043518 | 52 | 0.0 | 0.0 | 0.00 | 0.69 | 0.00 | 99 | 1015.5 | |
| 20260503042527 | 52 | 0.0 | 0.0 | 0.00 | 0.69 | 0.00 | 99 | 1015.4 | |
| 20260503041550 | 53 | 0.0 | 0.0 | 0.00 | 0.69 | 0.00 | 99 | 1015.3 | |
| 20260503040533 | 53 | 0.0 | 0.0 | 0.00 | 0.69 | 0.00 | 99 | 1015.3 | |
| 20260503035520 | 53 | 0.0 | 0.0 | 0.00 | 0.69 | 0.69 | 99 | 1015.4 | |
| 20260503034544 | 53 | 0.0 | 0.0 | 0.00 | 0.69 | 0.69 | 99 | 1015.4 | |
| 20260503033524 | 53 | 0.0 | 0.0 | 0.00 | 0.69 | 0.69 | 99 | 1015.7 | |
| 20260503032528 | 53 | 0.0 | 0.0 | 0.00 | 0.69 | 0.69 | 99 | 1015.8 | |
| 20260503031529 | 53 | 0.0 | 0.0 | 0.00 | 0.69 | 0.69 | 99 | 1015.9 | |
| 20260503030533 | 53 | 0.0 | 0.0 | 0.00 | 0.69 | 0.69 | 99 | 1015.7 | |
| 20260503025517 | 53 | 0.0 | 0.0 | 0.00 | 0.69 | 0.69 | 99 | 1015.2 | |
| 20260503024520 | 53 | 0.0 | 0.0 | 0.00 | 0.69 | 0.69 | 99 | 1014.9 | |
| 20260503023523 | 53 | 0.0 | 0.0 | 0.00 | 0.69 | 0.69 | 99 | 1014.6 | |
| 20260503022527 | 53 | 0.0 | 0.0 | 0.00 | 0.69 | 0.69 | 99 | 1014.5 | |
| 20260503021530 | 53 | 0.0 | 0.0 | 0.00 | 0.69 | 0.69 | 99 | 1014.3 | |
| 20260503020532 | 53 | 0.0 | 0.0 | 0.00 | 0.69 | 0.69 | 99 | 1014.0 | |
| 20260503015517 | 53 | 0.0 | 0.0 | 0.00 | 0.69 | 0.69 | 99 | 1014.0 | |
| 20260503014520 | 53 | 0.0 | 0.0 | 0.00 | 0.69 | 0.69 | 99 | 1013.6 | |
| 20260503013523 | 53 | 0.0 | 0.0 | 0.00 | 0.69 | 0.69 | 99 | 1013.6 | |
| 20260503012540 | 53 | 0.0 | 0.0 | 0.00 | 0.69 | 0.69 | 99 | 1013.4 | |
| 20260503011517 | 53 | 0.0 | 0.0 | 0.00 | 0.69 | 0.69 | 99 | 1013.2 | |
| 20260503010531 | 53 | 0.0 | 0.0 | 0.00 | 0.69 | 0.69 | 99 | 1013.2 | |
| 20260503005516 | 54 | 0.0 | 0.0 | 0.00 | 0.69 | 0.69 | 99 | 1012.8 | |
| 20260503004540 | 54 | 0.0 | 0.0 | 0.00 | 0.69 | 0.69 | 99 | 1012.9 | |
| 20260503003522 | 54 | 0.0 | 0.0 | 0.00 | 0.69 | 0.69 | 99 | 1012.6 | |
| 20260503002545 | 55 | 0.0 | 0.0 | 0.00 | 0.69 | 0.69 | 99 | 1012.5 | |
| 20260503001528 | 55 | 0.0 | 0.0 | 0.00 | 0.69 | 0.69 | 99 | 1012.5 | |
| 20260503000531 | 55 | 0.0 | 0.0 | 0.00 | 0.69 | 0.69 | 99 | 1012.4 | |
| 20260502235516 | 56 | 0.0 | 0.0 | 0.00 | 0.69 | 0.69 | 99 | 1012.3 | |
| 20260502234518 | 56 | 0.0 | 0.0 | 0.00 | 0.69 | 0.69 | 99 | 1011.9 | |
| 20260502233542 | 57 | 0.0 | 0.0 | 0.00 | 0.69 | 0.69 | 99 | 1011.8 | |
| 20260502232524 | 57 | 0.0 | 0.0 | 0.00 | 0.69 | 0.69 | 99 | 1011.6 | |
| 20260502231527 | 57 | 0.0 | 0.0 | 0.00 | 0.69 | 0.69 | 99 | 1011.6 | |
| 20260502230554 | 58 | 0.0 | 0.0 | 0.00 | 0.69 | 0.69 | 99 | 1011.4 | |
| 20260502225515 | 57 | 0.0 | 0.0 | 0.00 | 0.69 | 0.69 | 99 | 1011.5 | |
| 20260502224518 | 57 | 0.0 | 0.0 | 0.00 | 0.69 | 0.69 | 99 | 1011.8 |